Regional Weather Roundup
Issued by NWS

Home | Current Version | Previous Version | Text Only | Print | Product List | Glossary Off
Versions: 1 2 3 4 5 6 7 8 9 10 11 12 13 14 15 16 17 18 19 20 21 22 23 24 25 26 27 28 29 30 31 32 33 34 35 36 37 38 39 40 41 42 43 44 45 46 47 48 49 50

000
ASUS45 KSLC 222310
RWRUT

UTAH REGIONAL WEATHER ROUNDUP
NATIONAL WEATHER SERVICE SALT LAKE CITY UT
500 PM MDT SAT JUL 22 2017

UTZ001>011-023>025-230000-

NORTHERN UTAH

CITY           SKY/WX    TMP DP  RH WIND       PRES   REMARKS
BRIGHAM CITY   SUNNY     96  23   7 NW5       30.07F
HILL AFB       SUNNY     93  42  17 N9        30.12F
LOGAN          SUNNY     97  30   9 CALM      30.09F HX  91
OGDEN          SUNNY     95  40  14 N9        30.07F HX  91
SALT LAKE CITY MOSUNNY   97  44  16 NW9       30.04F HX  93
TOOELE VALLEY  MOSUNNY   93  54  26 N10       30.08F HX  91
WENDOVER       MOSUNNY   97  39  13 E9G17     30.05F HX  92
HEBER CITY     CLOUDY    88  43  20 SW6       30.16F
WEST JORDAN    PTSUNNY   92  60  34 N5        30.09F HX  91

$$

UTZ011>015-024>027-230000-

CENTRAL/NORTHEAST UTAH

CITY           SKY/WX    TMP DP  RH WIND       PRES   REMARKS
PROVO AIRPORT  CLOUDY    87  62  43 NW6       30.09F
MOAB/CANYONLAN SUNNY     97  45  16 NE12G20   30.00F HX  93
DELTA          SUNNY     91  37  15 N20G25    30.06F
PRICE          CLOUDY    87  51  28 NW5       30.17F
RICHFIELD      SUNNY     91  39  16 NE13      30.12F
ROOSEVELT      MOSUNNY   91  37  15 CALM      30.15F
VERNAL         SUNNY     93  44  18 SW8       30.13F

$$

UTZ013>016-019>022-027-230000-

SOUTHERN UTAH

CITY           SKY/WX    TMP DP  RH WIND       PRES   REMARKS
BRYCE CANYON   LGT RAIN  73  47  39 S10G26    30.31F
CEDAR CITY     PTSUNNY   85  46  25 NW7G20    30.13R
MILFORD        PTSUNNY   98  40  13 N14G20    30.05F HX  93
HANKSVILLE     SUNNY     99  41  13 N10G18    30.05F HX  94
KANAB          SUNNY     81  59  47 N10       30.10F
BLANDING       MOSUNNY   76  53  44 E13G21    30.23F

$$

REGIONAL REPORTS     COLORADO/ARIZONA

CITY           SKY/WX    TMP DP  RH WIND       PRES   REMARKS
CRAIG, CO      SUNNY     89  26  10 N9        30.21F
GRAND JUNCTION SUNNY     93  52  24 SW7       30.05F HX  90
RIFLE, CO      MOSUNNY   93  36  13 NW8       30.11F
MONTROSE, CO   MOSUNNY   86  48  26 CALM      30.15F
CORTEZ, CO     MOSUNNY   81  51  35 N10       30.15F
COLORADO CITY    N/A     75  63  64 NE8       30.10F
PAGE, AZ       SUNNY     97  48  18 NE12G18   30.00F HX  93
GRAND CANYON   MOSUNNY   87  44  22 NE15      30.21F
KINGMAN, AZ    MOSUNNY  101  55  21 E5        29.94F HX  99
FLAGSTAFF, AZ  MOSUNNY   80  47  31 NE10      30.24F

$$

REGIONAL REPORTS    NEVADA/IDAHO/WYOMING

CITY           SKY/WX    TMP DP  RH WIND       PRES   REMARKS
LAS VEGAS, NV  MOSUNNY  108  50  14 NE8       29.82F HX 105
ELY, NY        MOSUNNY   88  38  17 SW5       30.19F
ELKO, NV       MOSUNNY   97  24   7 CALM      30.08F HX  90
POCATELLO, ID  SUNNY     91  27  10 VRB7      30.14F
BURLEY, ID     SUNNY     87  38  17 W7        30.10F
FORT BRIDGER,    N/A     89  26  10 N12G23    30.32F
EVANSTON, WY   MOSUNNY   84  31  14 NW15G22   30.30F
ROCK SPRINGS,  SUNNY     88  21   8 N12G17    30.26F
KEMMERER, WY     N/A     84  28  13 NW16      30.32F

$$



USA.gov is the U.S. government's official web portal to all federal, state and local government web resources and services.